[[{"header":{"parameterUnit":"m.s-1","parameterCategory":1,"la1":30.2991,"la2":30.254,"lo1":-89.0895,"lo2":-89.0444,"dy":0.0017,"dx":0.0017,"nx":28,"ny":28,"refTime":"2023-09-13T09:00:00:Z","depth":0,"parameterNumber":2,"parameterNumberName":"U-component_of_WINDS"},"data":[0,0,0,0,0,0,0,0,0,0,0,0,0,0,0,0,0,0,0,0,0,0,0,0,0,0,0,0,0,0,0,0,0,0,0,0,0,0,0,0,0,0,0,0,0,0,0,0,0,0,0,0,0,0,0,0,0,0,3.3387,3.3388,0,3.3497,3.3499,3.35,3.3425,3.3422,3.3418,3.3415,3.3528,3.3534,3.354,0,0,0,0,0,0,0,0,0,0,0,0,0,3.311,3.3115,3.3387,3.3388,3.339,3.3497,3.3499,3.35,3.3426,3.3421,3.3417,3.3413,3.3526,3.3533,3.3541,0,0,0,0,0,0,0,0,0,0,0,0,0,3.3226,3.3117,3.3387,3.3365,3.3364,3.3497,3.3499,3.3501,3.3426,3.3421,3.3416,3.3411,3.3524,3.3533,3.3542,3.3701,0,0,3.357,3.3574,0,0,0,0,0,0,0,0,3.322,3.3237,3.3367,3.3367,3.3366,3.3442,3.3442,3.3568,3.3428,3.3403,3.3415,3.3409,3.3504,3.3514,3.3546,3.3707,3.3711,3.3571,3.3577,3.3581,3.3583,0,0,0,0,0,0,0,3.3212,3.3231,3.343,3.3369,3.3369,3.335,3.3361,3.3466,3.3481,3.3405,3.34,3.3414,3.3502,3.3537,3.3548,3.3713,3.3571,3.3579,3.3585,3.3588,3.4007,3.4013,0,0,0,0,0,0,3.3206,3.3225,3.3427,3.3434,3.3279,3.3359,3.3371,3.3423,3.3479,3.3483,3.3418,3.341,3.3524,3.3538,3.3552,3.374,3.3581,3.3589,3.3595,3.4002,3.4008,3.4015,0,0,0,0,0,0,3.32,3.3225,3.3423,3.3328,3.3352,3.3369,3.3428,3.3428,3.3463,3.3489,3.3491,3.3451,3.3521,3.3539,3.3664,3.3743,3.3593,3.3602,3.3995,3.4004,3.4012,3.412,0,0,0,0,0,0,3.3193,3.3223,3.3284,3.333,3.3357,3.3534,3.3433,3.3434,3.3479,3.3469,3.3521,3.3524,3.3518,3.3651,3.3673,3.3753,3.3609,3.3988,3.3999,3.4009,3.4109,3.4131,3.4149,0,0,0,0,0,3.3183,3.3311,3.3288,3.3312,3.3434,3.3538,3.3554,3.3544,3.3486,3.3547,3.3563,3.3523,3.3731,3.3664,3.3689,3.3773,3.3983,3.3996,3.4008,3.41,3.4126,3.4149,0,0,0,0,0,0,3.3274,3.3316,3.3291,3.3438,3.3485,3.3525,3.3602,3.3572,3.3637,3.3625,3.361,3.3623,3.3753,3.3776,3.37,3.3929,3.3848,3.3866,3.3909,3.3935,3.3954,3.3945,3.3617,0,0,0,0,0,3.3311,3.3392,3.3425,3.3551,3.3576,3.3585,3.363,3.3619,3.3667,3.3686,3.3712,3.3761,3.3836,3.3887,3.3959,3.4112,3.4121,3.4182,3.4202,3.4219,3.4234,3.4315,3.4341,3.4056,3.4056,3.4055,0,0,3.3388,3.3422,3.3474,3.357,3.3605,3.3689,3.3603,3.3695,3.3757,3.37,3.3819,3.3841,3.3893,3.4033,3.4096,3.4056,3.4315,3.4235,3.4247,3.4254,3.433,3.4357,3.4381,3.4064,3.4063,3.4061,0,0,3.3572,3.3606,3.3714,3.3751,3.3805,3.381,3.3836,3.3881,3.3892,3.4012,3.397,3.4043,3.4175,3.4214,3.4251,3.4448,3.4412,3.4472,3.4576,3.4655,3.4677,3.4697,3.4765,3.479,3.4487,3.4488,3.4488,0,3.3661,3.3786,3.3773,3.3868,3.3911,3.3863,3.3972,3.4008,3.4083,3.4113,3.4068,3.4231,3.4263,3.441,3.4458,3.449,3.4518,3.4465,3.4675,3.4695,3.4713,3.4778,3.4804,3.4494,3.4493,3.4493,3.4492,0,3.3892,3.3979,3.406,3.4132,3.4184,3.4286,3.4288,3.4342,3.4325,3.4335,3.4456,3.4493,3.4571,3.4605,3.459,3.475,3.4723,3.4677,3.4594,3.4747,3.4808,3.4833,3.4504,3.4501,3.4499,3.4498,0,0,3.4136,3.4199,3.4229,3.426,3.4316,3.4383,3.4482,3.4557,3.4603,3.4656,3.4737,3.485,3.4807,3.4849,3.4838,3.4907,3.5058,3.4852,3.4853,3.4887,3.5233,3.5266,3.5295,3.5035,3.504,3.5044,3.5228,0,3.4321,3.4493,3.4483,3.4644,3.4723,3.4679,3.4765,3.4808,3.4819,3.4888,3.4901,3.498,3.4918,3.4943,3.501,3.5026,3.5127,3.5013,3.511,3.5113,3.5096,3.5327,3.5363,3.5535,3.5252,3.5256,3.5259,0,3.456,3.462,3.4789,3.4831,3.4863,3.4941,3.5008,3.5075,3.5122,3.5125,3.5172,3.5149,3.5248,3.5164,3.5299,3.5221,3.5261,3.5274,3.5281,3.5288,3.5194,3.5339,3.559,3.5615,3.5297,3.5294,3.5291,0,3.4718,3.4842,3.4958,3.4986,3.5039,3.5094,3.5118,3.5161,3.5206,3.5265,3.5294,3.5364,3.5402,3.5456,3.5452,3.5392,3.5589,3.5505,3.5593,3.5593,3.5635,3.5632,3.5894,3.5664,3.5664,3.5663,3.5663,0,3.4924,3.5029,3.5029,3.5101,3.5216,3.5204,3.5318,3.5337,3.5375,3.5448,3.5414,3.5484,3.5476,3.5546,3.5544,3.5655,3.5673,3.5677,3.5675,3.5679,3.5679,3.5704,3.5691,3.567,3.5668,3.5667,3.5666,0,3.512,3.5125,3.5248,3.5288,3.53,3.5383,3.5416,3.5483,3.5491,3.5585,3.5606,3.562,3.57,3.5702,3.5795,3.5793,3.5928,3.5913,3.5911,3.5908,3.5995,3.5986,3.6281,3.6318,3.6065,3.6068,3.607,0,3.5251,3.533,3.5377,3.5424,3.5451,3.5527,3.5573,3.5564,3.5613,3.5672,3.5732,3.5809,3.587,3.6,3.6018,3.6088,3.6073,3.6172,3.6084,3.6085,3.6072,3.6067,3.6074,3.6188,3.6191,3.6194,3.6195,0,3.5482,3.548,3.5547,3.5615,3.567,3.5723,3.5772,3.5812,3.5808,3.5865,3.5946,3.5993,3.6087,3.6163,3.6231,3.6255,3.6225,3.6223,3.6247,3.6251,3.6246,3.6248,3.5956,3.6216,3.6214,3.6213,3.6211,3.6211,3.5648,3.5715,3.5758,3.5834,3.5869,3.5915,3.598,3.5996,3.6064,3.6139,3.6129,3.622,3.6263,3.6351,3.6381,3.6451,3.6416,3.6451,3.646,3.6468,3.6476,3.6236,3.6463,3.6463,3.6462,3.6462,3.6461,0,3.5875,3.59,3.597,3.6039,3.6098,3.6064,3.6116,3.6167,3.6247,3.629,3.635,3.6443,3.6516,3.654,3.661,3.6662,3.6649,3.6681,3.6676,3.6682,3.6504,3.6475,3.6689,3.6689,3.6689,3.6689,3.6689,3.6689,3.6,3.6112,3.6114,3.6243,3.6267,3.6355,3.6387,3.6429,3.6463,3.6568,3.6629,3.6643,3.6678,3.6751,3.6816,3.6821,3.6848,3.6885,3.6884,3.6717,3.6694,3.6672,3.6645,3.6891,3.6892,3.7055,3.7057,3.7058]},{"header":{"parameterUnit":"m.s-1","parameterCategory":1,"la1":30.2991,"la2":30.254,"lo1":-89.0895,"lo2":-89.0444,"dy":0.0017,"dx":0.0017,"nx":28,"ny":28,"refTime":"2023-09-13T09:00:00:Z","depth":0,"parameterNumber":3,"parameterNumberName":"V-component_of_WINDS"},"data":[0,0,0,0,0,0,0,0,0,0,0,0,0,0,0,0,0,0,0,0,0,0,0,0,0,0,0,0,0,0,0,0,0,0,0,0,0,0,0,0,0,0,0,0,0,0,0,0,0,0,0,0,0,0,0,0,0,0,0.3441,0.3442,0,0.3494,0.3495,0.3495,0.3481,0.348,0.3479,0.3478,0.3533,0.3535,0.3537,0,0,0,0,0,0,0,0,0,0,0,0,0,0.3328,0.333,0.3441,0.3442,0.3443,0.3494,0.3495,0.3495,0.3481,0.348,0.3478,0.3477,0.3532,0.3535,0.3538,0,0,0,0,0,0,0,0,0,0,0,0,0,0.3379,0.3331,0.3441,0.3442,0.3442,0.3494,0.3495,0.3496,0.3481,0.348,0.3478,0.3476,0.3531,0.3534,0.3538,0.3593,0,0,0.3549,0.3551,0,0,0,0,0,0,0,0,0.3376,0.3383,0.3441,0.3442,0.3442,0.3479,0.3475,0.3528,0.3482,0.3466,0.3478,0.3476,0.3516,0.3521,0.3534,0.3595,0.3598,0.355,0.3552,0.3553,0.3555,0,0,0,0,0,0,0,0.3372,0.338,0.3462,0.3442,0.3443,0.3439,0.3444,0.3485,0.35,0.3468,0.3467,0.3473,0.3516,0.3531,0.3536,0.3599,0.355,0.3553,0.3555,0.3557,0.3705,0.3707,0,0,0,0,0,0,0.3368,0.3378,0.3461,0.3464,0.3404,0.3442,0.3448,0.3469,0.3499,0.3502,0.3474,0.3472,0.3525,0.3531,0.3537,0.3603,0.3553,0.3557,0.3559,0.3704,0.3706,0.3708,0,0,0,0,0,0,0.3366,0.3376,0.3458,0.342,0.3431,0.3446,0.3469,0.3471,0.3485,0.3504,0.3507,0.3487,0.3524,0.3532,0.3579,0.3604,0.3559,0.3562,0.3702,0.3704,0.3707,0.3734,0,0,0,0,0,0,0.3363,0.3375,0.3396,0.3421,0.3433,0.3499,0.3471,0.3473,0.3492,0.3489,0.3516,0.3519,0.3524,0.3573,0.3582,0.3609,0.3565,0.3699,0.3703,0.3706,0.3731,0.3738,0.3743,0,0,0,0,0,0.3359,0.3403,0.3397,0.3407,0.346,0.3501,0.3507,0.3511,0.3494,0.3515,0.3527,0.3519,0.36,0.3578,0.3588,0.3616,0.3698,0.3702,0.3706,0.3729,0.3736,0.3743,0,0,0,0,0,0,0.3381,0.3406,0.34,0.3454,0.3475,0.3498,0.3525,0.3519,0.3547,0.3543,0.3547,0.3553,0.3601,0.3613,0.3588,0.367,0.3646,0.3652,0.366,0.3668,0.3674,0.367,0.3568,0,0,0,0,0,0.3392,0.3423,0.3443,0.3488,0.3499,0.351,0.3528,0.3529,0.3552,0.3561,0.3576,0.3598,0.3629,0.3649,0.3678,0.3732,0.3738,0.3756,0.3762,0.3767,0.3772,0.3801,0.3809,0.3721,0.372,0.372,0,0,0.3416,0.3433,0.3453,0.3493,0.351,0.3542,0.3518,0.3553,0.3577,0.3566,0.3611,0.3623,0.3647,0.3698,0.3721,0.371,0.3798,0.3772,0.3776,0.3779,0.3806,0.3814,0.3822,0.3723,0.3723,0.3722,0,0,0.3475,0.3491,0.353,0.3547,0.3572,0.3578,0.3588,0.3611,0.3618,0.3663,0.3655,0.3683,0.3736,0.3753,0.3769,0.3832,0.3825,0.3842,0.3873,0.39,0.3907,0.3914,0.3936,0.3944,0.3847,0.3847,0.3847,0,0.3501,0.3549,0.3551,0.3586,0.3604,0.3594,0.3633,0.3649,0.3683,0.3695,0.3682,0.3746,0.3763,0.3816,0.3832,0.3845,0.3855,0.3839,0.3906,0.3912,0.3918,0.3939,0.3948,0.3849,0.3849,0.3848,0.3848,0,0.3579,0.3612,0.3641,0.3672,0.3693,0.373,0.3737,0.3758,0.3756,0.3764,0.3809,0.3827,0.3859,0.3872,0.3871,0.3925,0.3917,0.3905,0.3882,0.3929,0.3948,0.3956,0.3851,0.3851,0.385,0.385,0,0,0.3656,0.3686,0.3697,0.371,0.3736,0.3762,0.3798,0.3828,0.3846,0.3869,0.3898,0.3942,0.393,0.3948,0.3949,0.3973,0.4021,0.3958,0.3959,0.3969,0.408,0.409,0.4099,0.4016,0.4018,0.4019,0.4078,0,0.3717,0.378,0.3782,0.3839,0.3869,0.386,0.3891,0.391,0.3918,0.3944,0.3953,0.3983,0.3966,0.3976,0.4,0.401,0.4044,0.4006,0.4044,0.4045,0.4038,0.4109,0.412,0.4175,0.4086,0.4087,0.4088,0,0.3797,0.3821,0.3882,0.3902,0.3914,0.3942,0.397,0.3995,0.4016,0.402,0.4039,0.4036,0.4072,0.4046,0.4095,0.407,0.4085,0.4092,0.4094,0.4098,0.407,0.4115,0.4193,0.4201,0.4101,0.41,0.4099,0,0.3846,0.3894,0.3936,0.3948,0.3973,0.3992,0.4003,0.4023,0.404,0.4064,0.4075,0.4103,0.4119,0.414,0.4144,0.4125,0.4193,0.4168,0.4197,0.4196,0.4212,0.4211,0.4293,0.4222,0.4221,0.4221,0.4221,0,0.3914,0.3952,0.3958,0.3984,0.4025,0.4026,0.4067,0.4076,0.4093,0.412,0.4113,0.4139,0.4142,0.4169,0.4172,0.4212,0.4219,0.4222,0.4223,0.4223,0.4223,0.4234,0.423,0.4223,0.4223,0.4223,0.4222,0,0.3977,0.3983,0.4027,0.4046,0.4052,0.4081,0.4097,0.4122,0.4128,0.4162,0.4171,0.4181,0.4211,0.4217,0.4253,0.4255,0.4302,0.4298,0.4295,0.4294,0.4323,0.432,0.4415,0.4427,0.4348,0.4348,0.4349,0,0.402,0.4048,0.407,0.4087,0.4099,0.4127,0.4145,0.4146,0.4165,0.419,0.4211,0.424,0.4264,0.4313,0.4323,0.435,0.4347,0.4379,0.4352,0.435,0.4347,0.4346,0.4348,0.4384,0.4385,0.4386,0.4386,0,0.4096,0.4097,0.4122,0.4149,0.417,0.4191,0.421,0.4225,0.4229,0.425,0.428,0.4299,0.4335,0.4364,0.439,0.4401,0.4394,0.4394,0.4402,0.4403,0.44,0.4401,0.4309,0.4393,0.4392,0.4391,0.4391,0.4391,0.415,0.4174,0.4192,0.4221,0.4235,0.4253,0.4277,0.4285,0.4311,0.434,0.4339,0.4372,0.4391,0.4425,0.4438,0.4464,0.4454,0.4466,0.4468,0.4471,0.4474,0.4395,0.4469,0.4468,0.4468,0.4468,0.4468,0,0.4225,0.4236,0.4262,0.4289,0.4311,0.4302,0.4322,0.4341,0.4371,0.4388,0.4411,0.4445,0.4473,0.4485,0.4511,0.453,0.4527,0.4537,0.4535,0.4538,0.4482,0.4472,0.4538,0.4538,0.4538,0.4538,0.4538,0.4538,0.4267,0.4307,0.431,0.4356,0.4367,0.4399,0.4412,0.4428,0.4442,0.448,0.4503,0.451,0.4525,0.4552,0.4577,0.4579,0.459,0.4601,0.4602,0.4549,0.4542,0.4535,0.4526,0.4603,0.4603,0.4656,0.4656,0.4657]}]]